Flag for Mexico Weather past 2 weeks in Mexicali, Baja California, Mexico

Now
88 °F

Clear.


Feels Like: 99 °F
Forecast: 86 / 107 °F
Wind: 10 mph from Southeast

Location: Imperial County Airport

Current Time: Jul 26, 2014 at 4:10:14 AM

Latest Report: Jul 26, 2014 at 2:53 AM


Visibility: 10 mi

Pressure: 29.78 "Hg

Humidity: 67%

Dew point: 76 °F

Location of MexicaliLocation

Historic Weather in Mexicali — Graph

°F

Mexicali temperature yesterday

Maximum temperature yesterday: 109 °F (at 3:53 PM)
Minimum temperature yesterday: 88 °F (at 5:53 AM)
Average temperature yesterday: 98 °F

Past Weeks' High & Low Weather Summary

 TemperatureHumidityPressure
High116 °F (Jul 23, 5:53 PM)77% (Jul 15, 5:53 AM)29.93 "Hg (Jul 15, 5:53 AM)
Low73 °F (Jul 22, 5:53 AM)6% (Jul 17, 2:53 PM)29.58 "Hg (Jul 24, 5:53 PM)
Average93 °F29%29.79 "Hg
* Reported Jul 11 2:53 AM — Jul 26 2:53 AM, Mexicali, Weather by CustomWeather, © 2014

Note: Actual official high and low records may vary slightly from our data, if they occured in-between our weather recording intervals... More about our weather records

Advertising

Mexicali weather history for previous 24 hours

 ConditionsComfort  
Time TempWeatherWind HumidityBarometerVisibility
2:53 AM
Jul 26
88 °FClear.10 mph67%29.78 "Hg10 mi
1:53 AM90 °FClear.8 mph48%29.77 "Hg10 mi
12:53 AM94 °FClear.3 mph37%29.77 "Hg10 mi
11:53 PM
Jul 25
95 °FClear.12 mph34%29.76 "Hg10 mi
10:53 PM95 °FClear.12 mph34%29.77 "Hg10 mi
9:53 PM97 °FClear.13 mph33%29.75 "Hg10 mi
8:53 PM100 °FClear.13 mph29%29.74 "Hg10 mi
7:53 PM101 °FSunny.13 mph28%29.72 "Hg10 mi
6:53 PM103 °FPassing clouds.12 mph30%29.69 "Hg10 mi
5:53 PM106 °FPassing clouds.9 mph26%29.68 "Hg10 mi
4:53 PM109 °FPassing clouds.10 mph23%29.68 "Hg10 mi
3:53 PM109 °FSunny.8 mph23%29.69 "Hg10 mi
2:53 PM107 °FSunny.8 mph25%29.72 "Hg10 mi
1:53 PM106 °FSunny.9 mph26%29.75 "Hg10 mi
12:53 PM105 °FSunny.13 mph30%29.76 "Hg10 mi
11:53 AM104 °FSunny.7 mph33%29.77 "Hg10 mi
10:53 AM100 °FSunny.12 mph38%29.79 "Hg10 mi
9:53 AM97 °FSunny.14 mph48%29.79 "Hg10 mi
8:53 AM94 °FSunny.15 mph49%29.79 "Hg10 mi
7:53 AM90 °FSunny.14 mph57%29.77 "Hg10 mi
6:53 AM88 °FSunny.13 mph63%29.75 "Hg10 mi
5:53 AM88 °FClear.13 mph63%29.73 "Hg10 mi
4:53 AM89 °FClear.13 mph63%29.70 "Hg10 mi
Weather by CustomWeather, © 2014

See weather overviewHow to use our weather pages